Location: Fuglau
(48.6333°N, 15.5500°E)
Time: 03:07:25
(UTC+00:00)

STARLINK-1025 - Pass Details

Date: 27 February 2020
Orbit: 548 x 551 km, 53.0° (Epoch: 09 April)

Event Time Altitude Azimuth Distance (km) Brightness Sun altitude
Rises 16:49:05 0° 264° (W) 2,719 10.4 -2.7°
Reaches altitude 10° 16:51:21 10° 269° (W) 1,827 8.2 -3.1°
Maximum altitude 16:55:25 53° 347° (NNW) 685 4.2 -3.8°
Drops below altitude 10° 16:59:30 10° 65° (ENE) 1,832 5.7 -4.4°
Enters shadow 17:00:35 - 68° (ENE) 2,252 6.1 -4.6°
